Regional Weather Roundup
Issued by NWS Wilmington, NC

Home | Current Version | Previous Version | Text Only | Print | Product List | Glossary On
Versions: 1 2 3 4 5 6 7 8 9 10 11 12 13 14 15 16 17 18 19 20 21 22 23 24 25 26 27 28 29 30 31 32 33 34 35 36 37 38 39 40 41 42 43 44 45 46 47 48 49 50
000
ASUS42 KILM 010313
RWRILM
RWRILM
REGIONAL HOURLY WEATHER ROUNDUP
NATIONAL WEATHER SERVICE WILMINGTON NC
1100 PM EDT MON AUG 31 2015

NOTE: "FAIR" INDICATES FEW OR NO CLOUDS BELOW 12,000 FEET WITH NO
SIGNIFICANT WEATHER AND/OR OBSTRUCTIONS TO VISIBILITY.

...............WFO WILMINGTON COUNTY WARNING AREA...............

......COASTAL NC AND SC COUNTIES......

CITY           SKY/WX    TMP DP  RH WIND       PRES   REMARKS
WILMINGTON     CLOUDY    75  74  96 CALM      30.05S
N MYRTLE BEACH CLEAR     75  73  93 CALM      30.07S FOG
MYRTLE BEACH   MOCLDY    75  72  88 CALM      30.10R

......INLAND NC AND SC COUNTIES.......

CITY           SKY/WX    TMP DP  RH WIND       PRES   REMARKS
LUMBERTON      CLEAR     72  70  93 CALM      30.07R
ELIZABETHTOWN  CLOUDY    75  75  99 CALM      30.07R
WHITEVILLE     PTCLDY    74  73  95 CALM      30.07S
FLORENCE       CLEAR     74  69  85 CALM      30.08R
DARLINGTON     CLEAR     70  66  88 CALM      30.10S

....................REST OF NORTH CAROLINA......................

.........EASTERN NC.........

CITY           SKY/WX    TMP DP  RH WIND       PRES   REMARKS
CAPE HATTERAS  LGT RAIN  79  75  87 S12       30.07S
JACKSONVILLE   PTCLDY    73  70  88 CALM      30.06S
MOREHEAD CITY  PTCLDY    80  76  87 SE7       30.05S
KENANSVILLE      N/A     73  73  97 CALM      30.07F
NEW BERN       CLOUDY    76  74  93 CALM      30.06F
ELIZABETH CITY CLOUDY    74  72  93 E3        30.08F

.........CENTRAL NC.........

CITY           SKY/WX    TMP DP  RH WIND       PRES   REMARKS
RALEIGH DURHAM PTCLDY    72  70  94 CALM      30.10R
ROCKY MOUNT    CLOUDY    74  72  93 NE3       30.08S
ROANOKE RAPIDS NOT AVBL
FAYETTEVILLE   CLEAR     73  71  93 N5        30.07S
HOFFMAN        CLEAR     70  69  97 N2        30.08S

.........WESTERN NC.........

CITY           SKY/WX    TMP DP  RH WIND       PRES   REMARKS
CHARLOTTE      CLEAR     77  68  73 SE9       30.11R
GREENSBORO     CLEAR     72  68  87 S3        30.11S
HICKORY        NOT AVBL
BOONE          NOT AVBL
ASHEVILLE      NOT AVBL

.....................REST OF SOUTH CAROLINA.....................

.........EASTERN SC.........

CITY           SKY/WX    TMP DP  RH WIND       PRES   REMARKS
CHARLESTON     PTCLDY    77  73  87 CALM      30.09S
BEAUFORT MCAS  PTCLDY    75  73  93 CALM      30.09S
HILTON HEAD    CLEAR     75  75 100 CALM      30.11S

.........CENTRAL SC.........

CITY           SKY/WX    TMP DP  RH WIND       PRES   REMARKS
COLUMBIA       PTCLDY    76  70  82 CALM      30.09R
ORANGEBURG     PTCLDY    73  71  93 CALM      30.10R
SUMTER SHAW    CLEAR     75  70  85 S1        30.07S

.........WESTERN SC.........

CITY           SKY/WX    TMP DP  RH WIND       PRES   REMARKS
GREENVILLE     NOT AVBL
ROCK HILL      CLEAR     74  69  85 SE3       30.11S
ANDERSON       CLEAR     71  67  87 CALM      30.12R
CLEMSON        NOT AVBL
GREENWOOD      CLEAR     73  69  87 SW5       30.12R


...................COASTAL AND OFFSHORE REPORTS..................

................LOCAL PIERS AND NC RESERVE................


STATION/POSITION TIME  SKY/WX   TEMP    WIND        PRES    VSBY
                                AIR SEA DIR/SP/G
                 (UTC)          (F)     (DEG/KT/KT) (MB)    (MI)
JOHNY MRCER PIER 0200            76 83  340/  4/  5 1017.0R
NC RESRV MASNBRO NOT AVBL
OCEAN CREST PIER NOT AVBL
SPRINGMAID  PIER 0200            77 82  260/  2/  2 1018.4R


................COASTAL AND OFFSHORE BUOYS................


STATION/POSITION TIME  SKY/WX   TEMP    WIND        PRES    VSBY
                                AIR SEA DIR/SP/G
                 (UTC)          (F)     (DEG/KT/KT) (MB)    (MI)
DIMNDSHOAL 41025 0250            81 83  170/ 14/ 16 1018.2S
WVE H/P(F/S)=  4/ 8 WND WVE H/P(F/S)=  3/ 4 SWL H/P/D(F/S/D)=  2/130/ 8

CAPE LOOKOUT     0300            79     160/ 12/ 13 1017.3F
ONSLOW BAY 41036 NOT AVBL
ONSLOW BAY 41064 0208            79 81  210/  8/ 12 1017.7F
ONSLOW BAY 41159 0225               81                N/A
WVE H/P(F/S)=  4/ 5 WND WVE H/P(F/S)=  3/ 5

5SE WRITBC 41038 0208            78 82  220/  4/  8 1017.3R
MASNBO INL 41110 0219               82                N/A
WVE H/P(F/S)=  4/ 5 WND WVE H/P(F/S)=  3/ 5

WILM HARBR 41108 0211               82                N/A
WVE H/P(F/S)=  4/ 6 WND WVE H/P(F/S)=  3/ 6

27SE WRITB 41037 0200            75 81  200/  4/  8   N/A
FRYING PAN 41013 0250            81 81  250/ 12/ 16 1018.0R
WVE H/P(F/S)=  4/ 6 WND WVE H/P(F/S)=  3/ 6 SWL H/P/D(F/S/D)=  3/180/ 6

SUNST NRSH 41024 NOT AVBL
CAPRS NRSH 41029 0208            82     130/  2/  6 1018.6R
EDISTO     41004 0250            82 83  250/  6/  8 1018.2R
WVE H/P(F/S)=  3/ 8 WND WVE H/P(F/S)=  2/ 3 SWL H/P/D(F/S/D)=  3/ 8



..........OFFSHORE BUOYS BEYOND 100 NM OFFSHORE...........
.....IN A TRIANGLE---HAT TO BERMUDA TO BAHAMAS TO HAT.....


STATION/POSITION TIME  SKY/WX   TEMP    WIND        PRES    VSBY
                                AIR SEA DIR/SP/G
                 (UTC)          (F)     (DEG/KT/KT) (MB)    (MI)
150E HAT   41001 0300            80 83  200/ 12/ 16 1019.5F
W BERMUDA  41048 0250            83 84  280/  6/  8 1020.7R
WVE H/P(F/S)=  3/ 9 WND WVE H/P(F/S)=  2/ 4 SWL H/P/D(F/S/D)=  2/ 80/ 9

ATLANTIC S 41049 0250            84 86  120/  2/  4 1020.0S
WVE H/P(F/S)=  3/ 9 SWL H/P/D(F/S/D)=  3/ 50/ 9

E BAHAMAS  41046 0250            84 86   90/  8/ 10 1019.7R
WVE H/P(F/S)=  4/10 WND WVE H/P(F/S)=  2/ 4 SWL H/P/D(F/S/D)=  3/ 50/10

NE BAHAMAS 41047 0250            84 85  120/ 10/ 14 1019.6S
WVE H/P(F/S)=  3/10 WND WVE H/P(F/S)=  2/ 5 SWL H/P/D(F/S/D)=  3/ 70/10

120E CANVRL41010 0220            85 85  170/  8/ 10 1019.3R

END



USA.gov is the U.S. government's official web portal to all federal, state and local government web resources and services.